AirNav   Phillips 66 Aviation Fuel
 
 416 users online  

5R5 R & R Aero Airport
Warsaw, New York, USA

GOING TO WARSAW?


FAA INFORMATION EFFECTIVE 03 JANUARY 2019

Location

FAA Identifier: 5R5
Lat/Long: 42-43-15.0000N / 078-11-05.0000W
42-43.250000N / 078-11.083333W
42.7208333 / -78.1847222
(estimated)
Elevation: 1650 ft. / 503 m
From city: 3 miles WSW of WARSAW, NY
Time zone: UTC -5 (UTC -4 during Daylight Saving Time)
Zip code: 14569

Airport Operations

Airport use: Open to the public
Activation date: 07/2014
Control tower: no
ARTCC: CLEVELAND CENTER
FSS: NEW YORK FLIGHT SERVICE STATION
NOTAMs facility: ISP (NOTAM-D service not available)
Attendance: IREG
Wind indicator: yes
Segmented circle: no

Airport Communications

CTAF: 122.9
WX AWOS-3PT at GVQ (19 nm N): 127.525 (585-343-6369)

Nearby radio navigation aids

VOR radial/distance  VOR name  Freq  Var
GEEr260/21.0GENESEO VOR/DME108.2009W
BUFr130/23.8BUFFALO VOR/DME116.4008W
ROCr235/32.8ROCHESTER VOR/DME110.0012W
ELZr357/38.7WELLSVILLE VORTAC111.4009W

Airport Services

Parking: tiedowns

Runway Information

Runway 10/28

Dimensions: 4000 x 140 ft. / 1219 x 43 m
Surface: turf, in good condition
RUNWAY 10  RUNWAY 28
Traffic pattern: leftright
Obstructions: none28 ft. trees, 38 ft. from runway, 78 ft. left of centerline, 1:1 slope to clear
RY 28, +58 FT TREES, 197 FT FM RY END, 109 FT LEFT

Airport Ownership and Management from official FAA records

Ownership: Privately-owned
Owner: REO & RUTH ROOD
4497 LIBERTY ST.
WARSAW, NY 14569
Phone 585-786-8574
Manager: RE0 ROOD
4497 LIBERTY ST.
WARSAW, NY 14569
Phone 585-786-8574

Airport Operational Statistics

Aircraft based on the field: 6
Single engine airplanes: 5
Multi engine airplanes: 1
    
Aircraft operations: avg 62/month *
67% local general aviation
27% transient general aviation
7% military
* for 12-month period ending 31 August 2017

Additional Remarks

CLSD DURING SNOW MONTHS (NOV-APR).

Instrument Procedures

There are no published instrument procedures at 5R5.

Some nearby airports with instrument procedures:

KGVQ - Genesee County Airport (19 nm N)
5G0 - Le Roy Airport (19 nm NE)
9G3 - Akron Airport (22 nm NW)
KDSV - Dansville Municipal Airport (23 nm SE)
9G0 - Buffalo Airfield (25 nm W)
 
Loc | Ops | Rwys | IFR | FBO | Links
Com | Nav | Svcs | Stats | Notes
Aerial photo
No photo
 
Airport distance calculator
Flying to R & R Aero Airport? Find the distance to fly.

From to 5R5

Sunrise and sunset
Times for 18-Jan-2019
 Local
(UTC-5)
 Zulu
(UTC)
Morning civil twilight07:0912:09
Sunrise07:4012:40
Sunset17:0722:07
Evening civil twilight17:3822:38

Current date and time
Zulu (UTC)  18-Jan-2019 11:47:09
Local (UTC-5)  18-Jan-2019 06:47:09
 
METAR
KGVQ 
19nm N 
181141Z AUTO 24006KT 2SM -SN BR BKN016 OVC034 M01/M02 A2993 RMK AO2 UPB16E30SNE16B30 P0001 FZRANO
KDSV 
23nm SE 
181054Z AUTO 13006KT 7SM FEW032 SCT060 OVC070 M01/M04 A2994 RMK AO2 SNE24 SLP154 P0000 T10061039
KBUF 
27nm NW 
181137Z 23006KT 2 1/2SM -SN BR OVC004 00/M01 A2994 RMK AO2 P0002 T00001011
KOLE 
30nm S 
181135Z AUTO 20005KT 1SM SN OVC002 M04/M04 A2989 RMK AO2
KROC 
32nm NE 
181100Z 20004KT 1 3/4SM -SN BR SCT022 OVC028 M01/M02 A2993 RMK AO2 T10111022 PNO $
TAF
KBUF 
27nm NW 
180859Z 1809/1906 19005KT 2SM -SHSN OVC015 FM181000 23007KT 1SM -SHSN OVC007 FM181400 27008KT P6SM OVC012 FM181700 28010KT P6SM OVC020 FM190000 29007KT P6SM BKN035
KROC 
32nm NE 
180528Z 1806/1906 18006KT P6SM OVC035 FM180900 21006KT 3SM -SHSN OVC015 TEMPO 1809/1811 2SM -SN FM181400 21006KT P6SM OVC015 FM181800 29011KT P6SM OVC035 FM182300 29008KT P6SM BKN035 FM190300 34007KT P6SM BKN020
NOTAMs
Click for the latest NOTAMs
NOTAMs are issued by the DoD/FAA and will open in a separate window not controlled by AirNav.

 

 
 

Would you like to see your business listed on this page?

 If your business provides an interesting product or service to pilots, flight crews, aircraft, or users of the R & R Aero Airport, you should consider listing it here.  To start the listing process, click on the button below
 
Add a business
 

Other Pages about R & R Aero Airport

Update a link
 
Copyright © AirNav, LLC. All rights reserved. Privacy Policy  Contact